When you browse on this site, cookies collect data to enhance your experience and personalize the content and advertising you see.
Visit our Privacy Policy to learn more. By continuing to use the site, you agree to this use of cookies and data.
  • In Belgium
  • List of Countries
  • For 7 days
  • Water Temperature
  • Satellite Maps
  • Weather Map
  • Weather Widgets
  • user-avatar
    Login

    Hourly Weather Skole

    Today, 19 December, Wednesday

    Time Temperature Precipitation Wind Pressure Humidity
    00:00 -9°C° 0 mm 1 mps 718 mmHg 92%
    01:00 -9°C° 0 mm 1 mps 719 mmHg 92%
    02:00 -9°C° 0 mm 1 mps 719 mmHg 92%
    03:00 -9°C° 0 mm 1 mps 718 mmHg 91%
    04:00 -9°C° 0 mm 1 mps 718 mmHg 91%
    05:00 -9°C° 0 mm 1 mps 718 mmHg 90%
    06:00 -9°C° 0 mm 1 mps 718 mmHg 89%
    07:00 -9°C° 0 mm 1 mps 718 mmHg 89%
    08:00 -9°C° 0 mm 1 mps 718 mmHg 88%
    09:00 -8°C° 0 mm 1 mps 719 mmHg 85%
    10:00 -6°C° 0 mm 1 mps 719 mmHg 82%
    11:00 -4°C° 0 mm 1 mps 719 mmHg 79%
    12:00 -3°C° 0 mm 1 mps 719 mmHg 79%
    13:00 -4°C° 0 mm 2 mps 718 mmHg 79%
    14:00 -4°C° 0 mm 2 mps 718 mmHg 79%
    15:00 -5°C° 0 mm 2 mps 718 mmHg 83%
    16:00 -6°C° 0 mm 2 mps 718 mmHg 87%
    17:00 -8°C° 0 mm 2 mps 717 mmHg 91%
    18:00 -8°C° 0 mm 2 mps 717 mmHg 89%
    19:00 -8°C° 0 mm 2 mps 717 mmHg 87%
    20:00 -8°C° 0 mm 2 mps 717 mmHg 86%
    21:00 -8°C° 0 mm 2 mps 717 mmHg 84%
    22:00 -8°C° 0 mm 2 mps 717 mmHg 82%
    23:00 -8°C° 0 mm 2 mps 717 mmHg 81%

    Tomorrow, 20 December, Thursday

    Time Temperature Precipitation Wind Pressure Humidity
    00:00 -8°C° 0 mm 2 mps 716 mmHg 80%
    01:00 -8°C° 0 mm 2 mps 716 mmHg 80%
    02:00 -8°C° 0 mm 2 mps 716 mmHg 79%
    03:00 -8°C° 0 mm 2 mps 716 mmHg 79%
    04:00 -8°C° 0 mm 2 mps 716 mmHg 79%
    05:00 -8°C° 0 mm 2 mps 715 mmHg 80%
    06:00 -8°C° 0 mm 2 mps 715 mmHg 80%
    07:00 -7°C° 0 mm 2 mps 715 mmHg 80%
    08:00 -7°C° 0 mm 2 mps 715 mmHg 81%
    09:00 -6°C° 0 mm 2 mps 715 mmHg 80%
    10:00 -5°C° 0 mm 2 mps 715 mmHg 80%
    11:00 -4°C° 0 mm 2 mps 715 mmHg 79%
    12:00 -3°C° 0 mm 2 mps 715 mmHg 80%
    13:00 -3°C° 0 mm 2 mps 715 mmHg 81%
    14:00 -2°C° 0 mm 2 mps 715 mmHg 81%
    15:00 -3°C° 0 mm 2 mps 715 mmHg 83%
    16:00 -4°C° 0 mm 2 mps 715 mmHg 84%
    17:00 -4°C° 0 mm 2 mps 715 mmHg 86%
    18:00 -4°C° 0.1 mm 2 mps 715 mmHg 87%
    19:00 -4°C° 0.1 mm 2 mps 715 mmHg 88%
    20:00 -4°C° 0.1 mm 2 mps 715 mmHg 89%
    21:00 -4°C° 0.1 mm 2 mps 715 mmHg 90%
    22:00 -4°C° 0.1 mm 2 mps 715 mmHg 91%
    23:00 -4°C° 0.1 mm 2 mps 715 mmHg 91%

    Day after tomorrow, 21 December, Friday

    Time Temperature Precipitation Wind Pressure Humidity
    00:00 -5°C° 0 mm 3 mps 715 mmHg 91%
    01:00 -5°C° 0 mm 3 mps 715 mmHg 91%
    02:00 -5°C° 0 mm 3 mps 715 mmHg 90%
    03:00 -5°C° 0 mm 3 mps 715 mmHg 90%
    04:00 -4°C° 0 mm 3 mps 715 mmHg 90%
    05:00 -4°C° 0 mm 3 mps 715 mmHg 90%
    06:00 -4°C° 0 mm 3 mps 715 mmHg 89%
    07:00 -4°C° 0 mm 3 mps 715 mmHg 89%
    08:00 -4°C° 0 mm 3 mps 715 mmHg 89%
    09:00 -2°C° 0 mm 3 mps 715 mmHg 88%
    10:00 -2°C° 0 mm 3 mps 715 mmHg 88%
    11:00 -2°C° 0 mm 4 mps 715 mmHg 87%
    12:00 -2°C° 0 mm 4 mps 715 mmHg 87%
    13:00 -2°C° 0 mm 4 mps 714 mmHg 87%
    14:00 -2°C° 0 mm 4 mps 714 mmHg 88%
    15:00 -2°C° 0.1 mm 4 mps 713 mmHg 87%
    16:00 -2°C° 0.1 mm 4 mps 713 mmHg 87%
    17:00 -3°C° 0.1 mm 4 mps 713 mmHg 87%
    18:00 -2°C° 0.1 mm 4 mps 712 mmHg 86%
    19:00 -2°C° 0.1 mm 4 mps 712 mmHg 85%
    20:00 -2°C° 0.1 mm 4 mps 711 mmHg 85%
    21:00 -2°C° 0.3 mm 5 mps 711 mmHg 85%
    22:00 -2°C° 0.3 mm 5 mps 710 mmHg 86%
    23:00 -2°C° 0.3 mm 6 mps 709 mmHg 86%

    22 December, Saturday

    Time Temperature Precipitation Wind Pressure Humidity
    00:00 -2°C° 0.5 mm 6 mps 709 mmHg 87%
    01:00 -2°C° 0.5 mm 6 mps 708 mmHg 87%
    02:00 -2°C° 0.5 mm 6 mps 707 mmHg 88%
    03:00 -2°C° 0.5 mm 6 mps 707 mmHg 88%
    04:00 -2°C° 0.5 mm 6 mps 707 mmHg 88%
    05:00 -1°C° 0.5 mm 6 mps 707 mmHg 87%
    06:00 -1°C° 0.1 mm 6 mps 707 mmHg 88%
    07:00 -1°C° 0.1 mm 6 mps 707 mmHg 88%
    08:00 -1°C° 0.1 mm 6 mps 707 mmHg 88%
    09:00 -1°C° 0 mm 6 mps 707 mmHg 88%
    10:00 +1°C° 0 mm 5 mps 707 mmHg 88%
    11:00 +1°C° 0 mm 5 mps 707 mmHg 88%
    12:00 +1°C° 0.4 mm 5 mps 706 mmHg 88%
    13:00 +1°C° 0.4 mm 5 mps 706 mmHg 88%
    14:00 +1°C° 0.4 mm 4 mps 705 mmHg 89%
    15:00 0°C° 0.5 mm 4 mps 705 mmHg 89%
    16:00 0°C° 0.5 mm 4 mps 704 mmHg 88%
    17:00 0°C° 0.5 mm 4 mps 704 mmHg 88%
    18:00 0°C° 0.2 mm 5 mps 704 mmHg 88%
    19:00 +1°C° 0.2 mm 5 mps 704 mmHg 88%
    20:00 +1°C° 0.2 mm 6 mps 704 mmHg 88%
    21:00 +1°C° 0.4 mm 6 mps 704 mmHg 89%
    22:00 +1°C° 0.4 mm 6 mps 704 mmHg 90%
    23:00 +1°C° 0.4 mm 6 mps 705 mmHg 91%

    23 December, Sunday

    Time Temperature Precipitation Wind Pressure Humidity
    00:00 +1°C° 0.1 mm 6 mps 705 mmHg 91%
    01:00 +1°C° 0.1 mm 5 mps 705 mmHg 90%
    02:00 +1°C° 0.1 mm 5 mps 706 mmHg 90%
    03:00 +1°C° 0.2 mm 5 mps 706 mmHg 90%
    04:00 0°C° 0.2 mm 5 mps 706 mmHg 90%
    05:00 0°C° 0.2 mm 5 mps 706 mmHg 90%
    06:00 0°C° 0.3 mm 5 mps 706 mmHg 90%
    07:00 0°C° 0.3 mm 5 mps 706 mmHg 90%
    08:00 0°C° 0.3 mm 5 mps 707 mmHg 89%
    09:00 0°C° 0.4 mm 5 mps 707 mmHg 90%
    10:00 0°C° 0.4 mm 5 mps 707 mmHg 90%
    11:00 0°C° 0.4 mm 5 mps 708 mmHg 90%
    12:00 0°C° 0.1 mm 5 mps 708 mmHg 89%
    13:00 0°C° 0.1 mm 5 mps 708 mmHg 88%
    14:00 0°C° 0.1 mm 5 mps 709 mmHg 87%
    15:00 0°C° 0.1 mm 5 mps 709 mmHg 87%
    16:00 0°C° 0.1 mm 4 mps 709 mmHg 88%
    17:00 -1°C° 0.1 mm 4 mps 709 mmHg 89%
    18:00 -1°C° 0.2 mm 4 mps 710 mmHg 89%
    19:00 -1°C° 0.2 mm 4 mps 710 mmHg 90%
    20:00 -1°C° 0.2 mm 4 mps 710 mmHg 90%
    21:00 -1°C° 0.2 mm 4 mps 710 mmHg 91%
    22:00 -1°C° 0.2 mm 4 mps 710 mmHg 91%
    23:00 -1°C° 0.2 mm 4 mps 710 mmHg 91%

    24 December, Monday

    Time Temperature Precipitation Wind Pressure Humidity
    00:00 -1°C° 0.4 mm 4 mps 710 mmHg 91%
    01:00 -1°C° 0.4 mm 4 mps 710 mmHg 90%
    02:00 -1°C° 0.4 mm 4 mps 710 mmHg 90%
    03:00 -1°C° 0.6 mm 4 mps 709 mmHg 90%
    04:00 -1°C° 0.6 mm 4 mps 709 mmHg 90%
    05:00 -1°C° 0.6 mm 4 mps 709 mmHg 89%
    06:00 -2°C° 0.2 mm 5 mps 710 mmHg 89%
    07:00 -2°C° 0.2 mm 5 mps 710 mmHg 88%
    08:00 -2°C° 0.2 mm 5 mps 710 mmHg 88%
    09:00 -4°C° 0.1 mm 5 mps 711 mmHg 87%
    10:00 -4°C° 0.1 mm 5 mps 712 mmHg 87%
    11:00 -3°C° 0.1 mm 4 mps 713 mmHg 86%
    12:00 -3°C° 0.1 mm 4 mps 713 mmHg 85%
    13:00 -3°C° 0.1 mm 4 mps 713 mmHg 84%
    14:00 -3°C° 0.1 mm 4 mps 714 mmHg 82%
    15:00 -4°C° 0 mm 3 mps 714 mmHg 84%
    16:00 -4°C° 0 mm 3 mps 715 mmHg 85%
    17:00 -4°C° 0 mm 2 mps 715 mmHg 87%
    18:00 -4°C° 0 mm 2 mps 715 mmHg 88%
    19:00 -4°C° 0 mm 2 mps 716 mmHg 89%
    20:00 -4°C° 0 mm 2 mps 716 mmHg 89%
    21:00 -4°C° 0.1 mm 2 mps 716 mmHg 90%
    22:00 -4°C° 0.1 mm 2 mps 716 mmHg 90%
    23:00 -4°C° 0.1 mm 2 mps 716 mmHg 91%
    Show more